Year,Month,Day,Hour,Minute,Value (Times are PST for temperature in C)
2017,10,01,00,00,10.20
2017,10,01,00,01,10.30
2017,10,01,00,02,10.30
2017,10,01,00,03,10.30
2017,10,01,00,04,10.40
2017,10,01,00,05,10.40
2017,10,01,00,06,10.40
2017,10,01,00,07,10.40
2017,10,01,00,08,10.50
2017,10,01,00,09,10.50
2017,10,01,00,10,10.50
2017,10,01,00,11,10.50
2017,10,01,00,12,10.40
2017,10,01,00,13,10.40
2017,10,01,00,14,10.40
2017,10,01,00,15,10.40
2017,10,01,00,16,10.40
2017,10,01,00,17,10.40
2017,10,01,00,18,10.40
2017,10,01,00,19,10.40
2017,10,01,00,20,10.30
2017,10,01,00,21,10.30
2017,10,01,00,22,10.30
2017,10,01,00,23,10.30
2017,10,01,00,24,10.30
2017,10,01,00,25,10.20
2017,10,01,00,26,10.20
2017,10,01,00,27,10.20
2017,10,01,00,28,10.10
2017,10,01,00,29,10.10
2017,10,01,00,30,10.10
2017,10,01,00,31,10.00
2017,10,01,00,32,10.00
2017,10,01,00,33,10.00
2017,10,01,00,34,10.00
2017,10,01,00,35,9.90
2017,10,01,00,36,9.90
2017,10,01,00,37,9.90
2017,10,01,00,38,9.90
2017,10,01,00,39,9.80
2017,10,01,00,40,9.80
2017,10,01,00,41,9.80
2017,10,01,00,42,9.80
2017,10,01,00,43,9.80
2017,10,01,00,44,9.70
2017,10,01,00,45,9.70
2017,10,01,00,46,9.70
2017,10,01,00,47,9.60
2017,10,01,00,48,9.60
2017,10,01,00,49,9.60
2017,10,01,00,50,9.50
2017,10,01,00,51,9.40
2017,10,01,00,52,9.40
2017,10,01,00,53,9.30
2017,10,01,00,54,9.30
2017,10,01,00,55,9.30
2017,10,01,00,56,9.30
2017,10,01,00,57,9.30
2017,10,01,00,58,9.30
2017,10,01,00,59,9.30
2017,10,01,01,00,9.30
2017,10,01,01,01,9.30
2017,10,01,01,02,9.30
2017,10,01,01,03,9.30
2017,10,01,01,04,9.30
2017,10,01,01,05,9.40
2017,10,01,01,06,9.40
2017,10,01,01,07,9.50
2017,10,01,01,08,9.50
2017,10,01,01,09,9.60
2017,10,01,01,10,9.60
2017,10,01,01,11,9.70
2017,10,01,01,12,9.70
2017,10,01,01,13,9.80
2017,10,01,01,14,9.80
2017,10,01,01,15,9.80
2017,10,01,01,16,9.80
2017,10,01,01,17,9.80
2017,10,01,01,18,9.80
2017,10,01,01,19,9.80
2017,10,01,01,20,9.70
2017,10,01,01,21,9.70
2017,10,01,01,22,9.70
2017,10,01,01,23,9.70
2017,10,01,01,24,9.70
2017,10,01,01,25,9.70
2017,10,01,01,26,9.70
2017,10,01,01,27,9.70
2017,10,01,01,28,9.70
2017,10,01,01,29,9.70
2017,10,01,01,30,9.70
2017,10,01,01,31,9.70
2017,10,01,01,32,9.60
2017,10,01,01,33,9.60
2017,10,01,01,34,9.60
2017,10,01,01,35,9.60
2017,10,01,01,36,9.50
2017,10,01,01,37,9.50
2017,10,01,01,38,9.50
2017,10,01,01,39,9.50
2017,10,01,01,40,9.50
2017,10,01,01,41,9.50
2017,10,01,01,42,9.50
2017,10,01,01,43,9.50
2017,10,01,01,44,9.40
2017,10,01,01,45,9.40
2017,10,01,01,46,9.30
2017,10,01,01,47,9.30
2017,10,01,01,48,9.30
2017,10,01,01,49,9.20
2017,10,01,01,50,9.20
2017,10,01,01,51,9.20
2017,10,01,01,52,9.10
2017,10,01,01,53,9.10
2017,10,01,01,54,9.10
2017,10,01,01,55,9.00
2017,10,01,01,56,9.00
2017,10,01,01,57,9.00
2017,10,01,01,58,9.00
2017,10,01,01,59,9.00
2017,10,01,02,00,9.00
2017,10,01,02,01,9.00
2017,10,01,02,02,8.90
2017,10,01,02,03,8.90
2017,10,01,02,04,8.90
2017,10,01,02,05,8.90
2017,10,01,02,06,9.00
2017,10,01,02,07,9.00
2017,10,01,02,08,9.00
2017,10,01,02,09,9.00
2017,10,01,02,10,9.00
2017,10,01,02,11,9.00
2017,10,01,02,12,9.00
2017,10,01,02,13,9.00
2017,10,01,02,14,9.00
2017,10,01,02,15,9.00
2017,10,01,02,16,9.00
2017,10,01,02,17,9.00
2017,10,01,02,18,9.00
2017,10,01,02,19,9.00
2017,10,01,02,20,9.00
2017,10,01,02,21,8.90
2017,10,01,02,22,8.90
2017,10,01,02,23,8.90
2017,10,01,02,24,8.90
2017,10,01,02,25,8.80
2017,10,01,02,26,8.80
2017,10,01,02,27,8.80
2017,10,01,02,28,8.80
2017,10,01,02,29,8.80
2017,10,01,02,30,8.80
2017,10,01,02,31,8.70
2017,10,01,02,32,8.70
2017,10,01,02,33,8.70
2017,10,01,02,34,8.70
2017,10,01,02,35,8.70
2017,10,01,02,36,8.70
2017,10,01,02,37,8.70
2017,10,01,02,38,8.70
2017,10,01,02,39,8.80
2017,10,01,02,40,8.80
2017,10,01,02,41,8.80
2017,10,01,02,42,8.80
2017,10,01,02,43,8.80
2017,10,01,02,44,8.80
2017,10,01,02,45,8.90
2017,10,01,02,46,8.90
2017,10,01,02,47,8.90
2017,10,01,02,48,8.90
2017,10,01,02,49,8.90
2017,10,01,02,50,8.90
2017,10,01,02,51,8.90
2017,10,01,02,52,8.90
2017,10,01,02,53,8.90
2017,10,01,02,54,9.00
2017,10,01,02,55,9.00
2017,10,01,02,56,9.00
2017,10,01,02,57,9.00
2017,10,01,02,58,9.00
2017,10,01,02,59,9.00
2017,10,01,03,00,9.00
2017,10,01,03,01,9.00
2017,10,01,03,02,9.10
2017,10,01,03,03,9.10
2017,10,01,03,04,9.10
2017,10,01,03,05,9.10
2017,10,01,03,06,9.10
2017,10,01,03,07,9.10
2017,10,01,03,08,9.10
2017,10,01,03,09,9.10
2017,10,01,03,10,9.20
2017,10,01,03,11,9.20
2017,10,01,03,12,9.20
2017,10,01,03,13,9.20
2017,10,01,03,14,9.20
2017,10,01,03,15,9.30
2017,10,01,03,16,9.30
2017,10,01,03,17,9.30
2017,10,01,03,18,9.30
2017,10,01,03,19,9.40
2017,10,01,03,20,9.40
2017,10,01,03,21,9.40
2017,10,01,03,22,9.50
2017,10,01,03,23,9.60
2017,10,01,03,24,9.60
2017,10,01,03,25,9.70
2017,10,01,03,26,9.70
2017,10,01,03,27,9.80
2017,10,01,03,28,9.80
2017,10,01,03,29,9.90
2017,10,01,03,30,9.90
2017,10,01,03,31,9.90
2017,10,01,03,32,10.00
2017,10,01,03,33,10.00
2017,10,01,03,34,10.10
2017,10,01,03,35,10.20
2017,10,01,03,36,10.20
2017,10,01,03,37,10.20
2017,10,01,03,38,10.30
2017,10,01,03,39,10.30
2017,10,01,03,40,10.30
2017,10,01,03,41,10.30
2017,10,01,03,42,10.30
2017,10,01,03,43,10.30
2017,10,01,03,44,10.30
2017,10,01,03,45,10.30
2017,10,01,03,46,10.30
2017,10,01,03,47,10.30
2017,10,01,03,48,10.30
2017,10,01,03,49,10.30
2017,10,01,03,50,10.30
2017,10,01,03,51,10.30
2017,10,01,03,52,10.30
2017,10,01,03,53,10.40
2017,10,01,03,54,10.40
2017,10,01,03,55,10.40
2017,10,01,03,56,10.40
2017,10,01,03,57,10.40
2017,10,01,03,58,10.40
2017,10,01,03,59,10.30
2017,10,01,04,00,10.30
2017,10,01,04,01,10.30
2017,10,01,04,02,10.30
2017,10,01,04,03,10.30
2017,10,01,04,04,10.30
2017,10,01,04,05,10.30
2017,10,01,04,06,10.30
2017,10,01,04,07,10.30
2017,10,01,04,08,10.30
2017,10,01,04,09,10.30
2017,10,01,04,10,10.30
2017,10,01,04,11,10.30
2017,10,01,04,12,10.30
2017,10,01,04,13,10.30
2017,10,01,04,14,10.20
2017,10,01,04,15,10.20
2017,10,01,04,16,10.20
2017,10,01,04,17,10.20
2017,10,01,04,18,10.20
2017,10,01,04,19,10.20
2017,10,01,04,20,10.10
2017,10,01,04,21,10.10
2017,10,01,04,22,10.10
2017,10,01,04,23,10.10
2017,10,01,04,24,10.10
2017,10,01,04,25,10.10
2017,10,01,04,26,10.10
2017,10,01,04,27,10.10
2017,10,01,04,28,10.10
2017,10,01,04,29,10.10
2017,10,01,04,30,10.10
2017,10,01,04,31,10.10
2017,10,01,04,32,10.10
2017,10,01,04,33,10.10
2017,10,01,04,34,10.00
2017,10,01,04,35,10.00
2017,10,01,04,36,10.00
2017,10,01,04,37,10.00
2017,10,01,04,38,10.00
2017,10,01,04,39,9.90
2017,10,01,04,40,9.90
2017,10,01,04,41,9.90
2017,10,01,04,42,9.90
2017,10,01,04,43,9.90
2017,10,01,04,44,9.90
2017,10,01,04,45,9.80
2017,10,01,04,46,9.80
2017,10,01,04,47,9.80
2017,10,01,04,48,9.70
2017,10,01,04,49,9.70
2017,10,01,04,50,9.70
2017,10,01,04,51,9.70
2017,10,01,04,52,9.60
2017,10,01,04,53,9.70
2017,10,01,04,54,9.70
2017,10,01,04,55,9.60
2017,10,01,04,56,9.60
2017,10,01,04,57,9.60
2017,10,01,04,58,9.60
2017,10,01,04,59,9.60
2017,10,01,05,00,9.60
2017,10,01,05,01,9.60
2017,10,01,05,02,9.60
2017,10,01,05,03,9.60
2017,10,01,05,04,9.60
2017,10,01,05,05,9.60
2017,10,01,05,06,9.60
2017,10,01,05,07,9.60
2017,10,01,05,08,9.60
2017,10,01,05,09,9.60
2017,10,01,05,10,9.60
2017,10,01,05,11,9.60
2017,10,01,05,12,9.60
2017,10,01,05,13,9.60
2017,10,01,05,14,9.60
2017,10,01,05,15,9.70
2017,10,01,05,16,9.70
2017,10,01,05,17,9.70
2017,10,01,05,18,9.60
2017,10,01,05,19,9.70
2017,10,01,05,20,9.70
2017,10,01,05,21,9.70
2017,10,01,05,22,9.70
2017,10,01,05,23,9.70
2017,10,01,05,24,9.70
2017,10,01,05,25,9.70
2017,10,01,05,26,9.80
2017,10,01,05,27,9.80
2017,10,01,05,28,9.80
2017,10,01,05,29,9.80
2017,10,01,05,30,9.80
2017,10,01,05,31,9.80
2017,10,01,05,32,9.80
2017,10,01,05,33,9.80
2017,10,01,05,34,9.80
2017,10,01,05,35,9.90
2017,10,01,05,36,9.90
2017,10,01,05,37,9.90
2017,10,01,05,38,9.90
2017,10,01,05,39,9.90
2017,10,01,05,40,10.00
2017,10,01,05,41,10.00
2017,10,01,05,42,10.00
2017,10,01,05,43,10.00
2017,10,01,05,44,10.00
2017,10,01,05,45,10.00
2017,10,01,05,46,10.00
2017,10,01,05,47,10.00
2017,10,01,05,48,10.00
2017,10,01,05,49,9.90
2017,10,01,05,50,9.90
2017,10,01,05,51,9.90
2017,10,01,05,52,9.90
2017,10,01,05,53,9.90
2017,10,01,05,54,9.90
2017,10,01,05,55,9.80
2017,10,01,05,56,9.80
2017,10,01,05,57,9.80
2017,10,01,05,58,9.80
2017,10,01,05,59,9.80
2017,10,01,06,00,9.80
2017,10,01,06,01,9.80
2017,10,01,06,02,9.80
2017,10,01,06,03,9.80
2017,10,01,06,04,9.80
2017,10,01,06,05,9.80
2017,10,01,06,06,9.80
2017,10,01,06,07,9.80
2017,10,01,06,08,9.70
2017,10,01,06,09,9.70
2017,10,01,06,10,9.70
2017,10,01,06,11,9.70
2017,10,01,06,12,9.70
2017,10,01,06,13,9.60
2017,10,01,06,14,9.60
2017,10,01,06,15,9.60
2017,10,01,06,16,9.60
2017,10,01,06,17,9.60
2017,10,01,06,18,9.60
2017,10,01,06,19,9.50
2017,10,01,06,20,9.50
2017,10,01,06,21,9.40
2017,10,01,06,22,9.40
2017,10,01,06,23,9.40
2017,10,01,06,24,9.30
2017,10,01,06,25,9.30
2017,10,01,06,26,9.30
2017,10,01,06,27,9.30
2017,10,01,06,28,9.20
2017,10,01,06,29,9.20
2017,10,01,06,30,9.20
2017,10,01,06,31,9.20
2017,10,01,06,32,9.20
2017,10,01,06,33,9.20
2017,10,01,06,34,9.20
2017,10,01,06,35,9.20
2017,10,01,06,36,9.20
2017,10,01,06,37,9.10
2017,10,01,06,38,9.10
2017,10,01,06,39,9.10
2017,10,01,06,40,9.00
2017,10,01,06,41,9.00
2017,10,01,06,42,8.90
2017,10,01,06,43,8.90
2017,10,01,06,44,8.90
2017,10,01,06,45,8.90
2017,10,01,06,46,8.90
2017,10,01,06,47,8.90
2017,10,01,06,48,8.90
2017,10,01,06,49,8.90
2017,10,01,06,50,8.90
2017,10,01,06,51,8.90
2017,10,01,06,52,8.90
2017,10,01,06,53,8.80
2017,10,01,06,54,8.80
2017,10,01,06,55,8.80
2017,10,01,06,56,8.80
2017,10,01,06,57,8.80
2017,10,01,06,58,8.80
2017,10,01,06,59,8.70
2017,10,01,07,00,8.70
2017,10,01,07,01,8.70
2017,10,01,07,02,8.70
2017,10,01,07,03,8.60
2017,10,01,07,04,8.60
2017,10,01,07,05,8.60
2017,10,01,07,06,8.60
2017,10,01,07,07,8.60
2017,10,01,07,08,8.60
2017,10,01,07,09,8.60
2017,10,01,07,10,8.60
2017,10,01,07,11,8.50
2017,10,01,07,12,8.50
2017,10,01,07,13,8.50
2017,10,01,07,14,8.50
2017,10,01,07,15,8.50
2017,10,01,07,16,8.50
2017,10,01,07,17,8.40
2017,10,01,07,18,8.40
2017,10,01,07,19,8.40
2017,10,01,07,20,8.40
2017,10,01,07,21,8.40
2017,10,01,07,22,8.30
2017,10,01,07,23,8.30
2017,10,01,07,24,8.30
2017,10,01,07,25,8.30
2017,10,01,07,26,8.30
2017,10,01,07,27,8.30
2017,10,01,07,28,8.30
2017,10,01,07,29,8.30
2017,10,01,07,30,8.30
2017,10,01,07,31,8.30
2017,10,01,07,32,8.40
2017,10,01,07,33,8.40
2017,10,01,07,34,8.40
2017,10,01,07,35,8.50
2017,10,01,07,36,8.50
2017,10,01,07,37,8.50
2017,10,01,07,38,8.50
2017,10,01,07,39,8.60
2017,10,01,07,40,8.60
2017,10,01,07,41,8.60
2017,10,01,07,42,8.60
2017,10,01,07,43,8.60
2017,10,01,07,44,8.60
2017,10,01,07,45,8.60
2017,10,01,07,46,8.60
2017,10,01,07,47,8.60
2017,10,01,07,48,8.60
2017,10,01,07,49,8.60
2017,10,01,07,50,8.60
2017,10,01,07,51,8.60
2017,10,01,07,52,8.50
2017,10,01,07,53,8.50
2017,10,01,07,54,8.50
2017,10,01,07,55,8.50
2017,10,01,07,56,8.50
2017,10,01,07,57,8.60
2017,10,01,07,58,8.60
2017,10,01,07,59,8.70
2017,10,01,08,00,8.70
2017,10,01,08,01,8.80
2017,10,01,08,02,8.90
2017,10,01,08,03,8.90
2017,10,01,08,04,9.00
2017,10,01,08,05,9.10
2017,10,01,08,06,9.10
2017,10,01,08,07,9.20
2017,10,01,08,08,9.20
2017,10,01,08,09,9.20
2017,10,01,08,10,9.20
2017,10,01,08,11,9.20
2017,10,01,08,12,9.20
2017,10,01,08,13,9.30
2017,10,01,08,14,9.30
2017,10,01,08,15,9.30
2017,10,01,08,16,9.30
2017,10,01,08,17,9.30
2017,10,01,08,18,9.30
2017,10,01,08,19,9.30
2017,10,01,08,20,9.30
2017,10,01,08,21,9.40
2017,10,01,08,22,9.40
2017,10,01,08,23,9.40
2017,10,01,08,24,9.50
2017,10,01,08,25,9.50
2017,10,01,08,26,9.60
2017,10,01,08,27,9.60
2017,10,01,08,28,9.60
2017,10,01,08,29,9.70
2017,10,01,08,30,9.70
2017,10,01,08,31,9.70
2017,10,01,08,32,9.80
2017,10,01,08,33,9.80
2017,10,01,08,34,9.80
2017,10,01,08,35,9.90
2017,10,01,08,36,10.00
2017,10,01,08,37,10.00
2017,10,01,08,38,10.00
2017,10,01,08,39,10.10
2017,10,01,08,40,10.10
2017,10,01,08,41,10.00
2017,10,01,08,42,10.10
2017,10,01,08,43,10.10
2017,10,01,08,44,10.10
2017,10,01,08,45,10.20
2017,10,01,08,46,10.20
2017,10,01,08,47,10.20
2017,10,01,08,48,10.30
2017,10,01,08,49,10.30
2017,10,01,08,50,10.40
2017,10,01,08,51,10.50
2017,10,01,08,52,10.50
2017,10,01,08,53,10.60
2017,10,01,08,54,10.60
2017,10,01,08,55,10.60
2017,10,01,08,56,10.60
2017,10,01,08,57,10.70
2017,10,01,08,58,10.70
2017,10,01,08,59,10.70
2017,10,01,09,00,10.70
2017,10,01,09,01,10.70
2017,10,01,09,02,10.70
2017,10,01,09,03,10.70
2017,10,01,09,04,10.70
2017,10,01,09,05,10.80
2017,10,01,09,06,10.80
2017,10,01,09,07,10.80
2017,10,01,09,08,10.90
2017,10,01,09,09,10.90
2017,10,01,09,10,10.90
2017,10,01,09,11,11.00
2017,10,01,09,12,11.10
2017,10,01,09,13,11.10
2017,10,01,09,14,11.10
2017,10,01,09,15,11.20
2017,10,01,09,16,11.20
2017,10,01,09,17,11.30
2017,10,01,09,18,11.40
2017,10,01,09,19,11.40
2017,10,01,09,20,11.50
2017,10,01,09,21,11.50
2017,10,01,09,22,11.60
2017,10,01,09,23,11.60
2017,10,01,09,24,11.70
2017,10,01,09,25,11.70
2017,10,01,09,26,11.80
2017,10,01,09,27,11.80
2017,10,01,09,28,11.90
2017,10,01,09,29,11.90
2017,10,01,09,30,12.00
2017,10,01,09,31,12.00
2017,10,01,09,32,12.10
2017,10,01,09,33,12.10
2017,10,01,09,34,12.10
2017,10,01,09,35,12.20
2017,10,01,09,36,12.20
2017,10,01,09,37,12.20
2017,10,01,09,38,12.30
2017,10,01,09,39,12.30
2017,10,01,09,40,12.30
2017,10,01,09,41,12.30
2017,10,01,09,42,12.40
2017,10,01,09,43,12.40
2017,10,01,09,44,12.50
2017,10,01,09,45,12.50
2017,10,01,09,46,12.50
2017,10,01,09,47,12.60
2017,10,01,09,48,12.60
2017,10,01,09,49,12.60
2017,10,01,09,50,12.70
2017,10,01,09,51,12.70
2017,10,01,09,52,12.70
2017,10,01,09,53,12.70
2017,10,01,09,54,12.80
2017,10,01,09,55,12.80
2017,10,01,09,56,12.80
2017,10,01,09,57,12.80
2017,10,01,09,58,12.90
2017,10,01,09,59,12.90
2017,10,01,10,00,12.90
2017,10,01,10,01,13.00
2017,10,01,10,02,13.00
2017,10,01,10,03,13.00
2017,10,01,10,04,13.10
2017,10,01,10,05,13.10
2017,10,01,10,06,13.10
2017,10,01,10,07,13.10
2017,10,01,10,08,13.10
2017,10,01,10,09,13.10
2017,10,01,10,10,13.20
2017,10,01,10,11,13.20
2017,10,01,10,12,13.20
2017,10,01,10,13,13.20
2017,10,01,10,14,13.20
2017,10,01,10,15,13.20
2017,10,01,10,16,13.30
2017,10,01,10,17,13.30
2017,10,01,10,18,13.30
2017,10,01,10,19,13.30
2017,10,01,10,20,13.30
2017,10,01,10,21,13.40
2017,10,01,10,22,13.40
2017,10,01,10,23,13.40
2017,10,01,10,24,13.30
2017,10,01,10,25,13.30
2017,10,01,10,26,13.30
2017,10,01,10,27,13.30
2017,10,01,10,28,13.30
2017,10,01,10,29,13.30
2017,10,01,10,30,13.40
2017,10,01,10,31,13.40
2017,10,01,10,32,13.40
2017,10,01,10,33,13.50
2017,10,01,10,34,13.50
2017,10,01,10,35,13.50
2017,10,01,10,36,13.60
2017,10,01,10,37,13.60
2017,10,01,10,38,13.70
2017,10,01,10,39,13.70
2017,10,01,10,40,13.70
2017,10,01,10,41,13.70
2017,10,01,10,42,13.70
2017,10,01,10,43,13.70
2017,10,01,10,44,13.70
2017,10,01,10,45,13.70
2017,10,01,10,46,13.80
2017,10,01,10,47,13.80
2017,10,01,10,48,13.80
2017,10,01,10,49,13.80
2017,10,01,10,50,13.90
2017,10,01,10,51,13.90
2017,10,01,10,52,13.90
2017,10,01,10,53,13.90
2017,10,01,10,54,13.90
2017,10,01,10,55,13.90
2017,10,01,10,56,13.90
2017,10,01,10,57,13.90
2017,10,01,10,58,14.00
2017,10,01,10,59,14.10
2017,10,01,11,00,14.10
2017,10,01,11,01,14.10
2017,10,01,11,02,14.10
2017,10,01,11,03,14.10
2017,10,01,11,04,14.20
2017,10,01,11,05,14.20
2017,10,01,11,06,14.20
2017,10,01,11,07,14.20
2017,10,01,11,08,14.20
2017,10,01,11,09,14.20
2017,10,01,11,10,14.20
2017,10,01,11,11,14.20
2017,10,01,11,12,14.20
2017,10,01,11,13,14.20
2017,10,01,11,14,14.30
2017,10,01,11,15,14.30
2017,10,01,11,16,14.30
2017,10,01,11,17,14.40
2017,10,01,11,18,14.30
2017,10,01,11,19,14.30
2017,10,01,11,20,14.30
2017,10,01,11,21,14.30
2017,10,01,11,22,14.30
2017,10,01,11,23,14.40
2017,10,01,11,24,14.40
2017,10,01,11,25,14.40
2017,10,01,11,26,14.40
2017,10,01,11,27,14.50
2017,10,01,11,28,14.60
2017,10,01,11,29,14.60
2017,10,01,11,30,14.60
2017,10,01,11,31,14.50
2017,10,01,11,32,14.50
2017,10,01,11,33,14.50
2017,10,01,11,34,14.50
2017,10,01,11,35,14.50
2017,10,01,11,36,14.50
2017,10,01,11,37,14.60
2017,10,01,11,38,14.60
2017,10,01,11,39,14.60
2017,10,01,11,40,14.60
2017,10,01,11,41,14.70
2017,10,01,11,42,14.70
2017,10,01,11,43,14.70
2017,10,01,11,44,14.70
2017,10,01,11,45,14.70
2017,10,01,11,46,14.70
2017,10,01,11,47,14.80
2017,10,01,11,48,14.80
2017,10,01,11,49,14.70
2017,10,01,11,50,14.70
2017,10,01,11,51,14.70
2017,10,01,11,52,14.80
2017,10,01,11,53,14.80
2017,10,01,11,54,14.80
2017,10,01,11,55,14.80
2017,10,01,11,56,14.80
2017,10,01,11,57,14.80
2017,10,01,11,58,14.80
2017,10,01,11,59,14.80
2017,10,01,12,00,14.90
2017,10,01,12,01,14.90
2017,10,01,12,02,14.90
2017,10,01,12,03,14.90
2017,10,01,12,04,15.00
2017,10,01,12,05,15.00
2017,10,01,12,06,15.10
2017,10,01,12,07,15.10
2017,10,01,12,08,15.20
2017,10,01,12,09,15.20
2017,10,01,12,10,15.30
2017,10,01,12,11,15.30
2017,10,01,12,12,15.30
2017,10,01,12,13,15.30
2017,10,01,12,14,15.30
2017,10,01,12,15,15.30
2017,10,01,12,16,15.30
2017,10,01,12,17,15.40
2017,10,01,12,18,15.40
2017,10,01,12,19,15.40
2017,10,01,12,20,15.40
2017,10,01,12,21,15.40
2017,10,01,12,22,15.50
2017,10,01,12,23,15.50
2017,10,01,12,24,15.60
2017,10,01,12,25,15.60
2017,10,01,12,26,15.60
2017,10,01,12,27,15.60
2017,10,01,12,28,15.50
2017,10,01,12,29,15.50
2017,10,01,12,30,15.40
2017,10,01,12,31,15.40
2017,10,01,12,32,15.40
2017,10,01,12,33,15.40
2017,10,01,12,34,15.40
2017,10,01,12,35,15.50
2017,10,01,12,36,15.50
2017,10,01,12,37,15.60
2017,10,01,12,38,15.60
2017,10,01,12,39,15.60
2017,10,01,12,40,15.60
2017,10,01,12,41,15.60
2017,10,01,12,42,15.60
2017,10,01,12,43,15.60
2017,10,01,12,44,15.50
2017,10,01,12,45,15.50
2017,10,01,12,46,15.50
2017,10,01,12,47,15.60
2017,10,01,12,48,15.60
2017,10,01,12,49,15.60
2017,10,01,12,50,15.60
2017,10,01,12,51,15.60
2017,10,01,12,52,15.60
2017,10,01,12,53,15.60
2017,10,01,12,54,15.60
2017,10,01,12,55,15.60
2017,10,01,12,56,15.60
2017,10,01,12,57,15.70
2017,10,01,12,58,15.70
2017,10,01,12,59,15.80
2017,10,01,13,00,15.80
2017,10,01,13,01,15.90
2017,10,01,13,02,15.90
2017,10,01,13,03,15.90
2017,10,01,13,04,15.90
2017,10,01,13,05,15.90
2017,10,01,13,06,15.90
2017,10,01,13,07,15.90
2017,10,01,13,08,15.90
2017,10,01,13,09,15.90
2017,10,01,13,10,15.90
2017,10,01,13,11,15.90
2017,10,01,13,12,16.00
2017,10,01,13,13,16.00
2017,10,01,13,14,16.10
2017,10,01,13,15,16.10
2017,10,01,13,16,16.10
2017,10,01,13,17,16.10
2017,10,01,13,18,16.00
2017,10,01,13,19,16.00
2017,10,01,13,20,15.90
2017,10,01,13,21,15.90
2017,10,01,13,22,15.90
2017,10,01,13,23,15.90
2017,10,01,13,24,16.00
2017,10,01,13,25,16.00
2017,10,01,13,26,16.00
2017,10,01,13,27,16.00
2017,10,01,13,28,16.00
2017,10,01,13,29,16.00
2017,10,01,13,30,16.00
2017,10,01,13,31,16.00
2017,10,01,13,32,16.10
2017,10,01,13,33,16.10
2017,10,01,13,34,16.10
2017,10,01,13,35,16.10
2017,10,01,13,36,16.10
2017,10,01,13,37,16.10
2017,10,01,13,38,16.10
2017,10,01,13,39,16.20
2017,10,01,13,40,16.20
2017,10,01,13,41,16.20
2017,10,01,13,42,16.30
2017,10,01,13,43,16.30
2017,10,01,13,44,16.30
2017,10,01,13,45,16.30
2017,10,01,13,46,16.40
2017,10,01,13,47,16.40
2017,10,01,13,48,16.40
2017,10,01,13,49,16.40
2017,10,01,13,50,16.40
2017,10,01,13,51,16.40
2017,10,01,13,52,16.40
2017,10,01,13,53,16.40
2017,10,01,13,54,16.40
2017,10,01,13,55,16.40
2017,10,01,13,56,16.50
2017,10,01,13,57,16.50
2017,10,01,13,58,16.50
2017,10,01,13,59,16.50
2017,10,01,14,00,16.50
2017,10,01,14,01,16.50
2017,10,01,14,02,16.40
2017,10,01,14,03,16.40
2017,10,01,14,04,16.40
2017,10,01,14,05,16.40
2017,10,01,14,06,16.40
2017,10,01,14,07,16.50
2017,10,01,14,08,16.50
2017,10,01,14,09,16.50
2017,10,01,14,10,16.60
2017,10,01,14,11,16.60
2017,10,01,14,12,16.60
2017,10,01,14,13,16.70
2017,10,01,14,14,16.70
2017,10,01,14,15,16.70
2017,10,01,14,16,16.80
2017,10,01,14,17,16.80
2017,10,01,14,18,16.80
2017,10,01,14,19,16.80
2017,10,01,14,20,16.80
2017,10,01,14,21,16.80
2017,10,01,14,22,16.80
2017,10,01,14,23,16.70
2017,10,01,14,24,16.70
2017,10,01,14,25,16.60
2017,10,01,14,26,16.60
2017,10,01,14,27,16.60
2017,10,01,14,28,16.60
2017,10,01,14,29,16.70
2017,10,01,14,30,16.70
2017,10,01,14,31,16.80
2017,10,01,14,32,16.90
2017,10,01,14,33,16.90
2017,10,01,14,34,16.90
2017,10,01,14,35,16.90
2017,10,01,14,36,16.90
2017,10,01,14,37,17.00
2017,10,01,14,38,17.00
2017,10,01,14,39,17.00
2017,10,01,14,40,17.00
2017,10,01,14,41,16.90
2017,10,01,14,42,17.00
2017,10,01,14,43,17.00
2017,10,01,14,44,17.10
2017,10,01,14,45,17.10
2017,10,01,14,46,17.20
2017,10,01,14,47,17.20
2017,10,01,14,48,17.20
2017,10,01,14,49,17.30
2017,10,01,14,50,17.20
2017,10,01,14,51,17.20
2017,10,01,14,52,17.20
2017,10,01,14,53,17.10
2017,10,01,14,54,17.10
2017,10,01,14,55,17.10
2017,10,01,14,56,17.20
2017,10,01,14,57,17.20
2017,10,01,14,58,17.20
2017,10,01,14,59,17.30
2017,10,01,15,00,17.30
2017,10,01,15,01,17.30
2017,10,01,15,02,17.30
2017,10,01,15,03,17.30
2017,10,01,15,04,17.30
2017,10,01,15,05,17.30
2017,10,01,15,06,17.30
2017,10,01,15,07,17.30
2017,10,01,15,08,17.30
2017,10,01,15,09,17.20
2017,10,01,15,10,17.30
2017,10,01,15,11,17.30
2017,10,01,15,12,17.30
2017,10,01,15,13,17.30
2017,10,01,15,14,17.30
2017,10,01,15,15,17.40
2017,10,01,15,16,17.40
2017,10,01,15,17,17.40
2017,10,01,15,18,17.40
2017,10,01,15,19,17.50
2017,10,01,15,20,17.40
2017,10,01,15,21,17.40
2017,10,01,15,22,17.50
2017,10,01,15,23,17.50
2017,10,01,15,24,17.60
2017,10,01,15,25,17.60
2017,10,01,15,26,17.60
2017,10,01,15,27,17.60
2017,10,01,15,28,17.60
2017,10,01,15,29,17.70
2017,10,01,15,30,17.70
2017,10,01,15,31,17.70
2017,10,01,15,32,17.70
2017,10,01,15,33,17.70
2017,10,01,15,34,17.70
2017,10,01,15,35,17.70
2017,10,01,15,36,17.70
2017,10,01,15,37,17.70
2017,10,01,15,38,17.70
2017,10,01,15,39,17.70
2017,10,01,15,40,17.70
2017,10,01,15,41,17.80
2017,10,01,15,42,17.80
2017,10,01,15,43,17.80
2017,10,01,15,44,17.80
2017,10,01,15,45,17.90
2017,10,01,15,46,17.90
2017,10,01,15,47,17.90
2017,10,01,15,48,17.90
2017,10,01,15,49,17.90
2017,10,01,15,50,17.90
2017,10,01,15,51,17.90
2017,10,01,15,52,17.90
2017,10,01,15,53,17.80
2017,10,01,15,54,17.80
2017,10,01,15,55,17.80
2017,10,01,15,56,17.80
2017,10,01,15,57,17.80
2017,10,01,15,58,17.80
2017,10,01,15,59,17.80
2017,10,01,16,00,17.80
2017,10,01,16,01,17.80
2017,10,01,16,02,17.70
2017,10,01,16,03,17.70
2017,10,01,16,04,17.70
2017,10,01,16,05,17.70
2017,10,01,16,06,17.70
2017,10,01,16,07,17.70
2017,10,01,16,08,17.70
2017,10,01,16,09,17.60
2017,10,01,16,10,17.60
2017,10,01,16,11,17.60
2017,10,01,16,12,17.60
2017,10,01,16,13,17.60
2017,10,01,16,14,17.60
2017,10,01,16,15,17.60
2017,10,01,16,16,17.60
2017,10,01,16,17,17.60
2017,10,01,16,18,17.60
2017,10,01,16,19,17.60
2017,10,01,16,20,17.60
2017,10,01,16,21,17.60
2017,10,01,16,22,17.60
2017,10,01,16,23,17.50
2017,10,01,16,24,17.50
2017,10,01,16,25,17.50
2017,10,01,16,26,17.50
2017,10,01,16,27,17.50
2017,10,01,16,28,17.50
2017,10,01,16,29,17.50
2017,10,01,16,30,17.50
2017,10,01,16,31,17.50
2017,10,01,16,32,17.60
2017,10,01,16,33,17.60
2017,10,01,16,34,17.60
2017,10,01,16,35,17.70
2017,10,01,16,36,17.70
2017,10,01,16,37,17.70
2017,10,01,16,38,17.60
2017,10,01,16,39,17.60
2017,10,01,16,40,17.60
2017,10,01,16,41,17.70
2017,10,01,16,42,17.70
2017,10,01,16,43,17.60
2017,10,01,16,44,17.60
2017,10,01,16,45,17.60
2017,10,01,16,46,17.60
2017,10,01,16,47,17.60
2017,10,01,16,48,17.60
2017,10,01,16,49,17.60
2017,10,01,16,50,17.60
2017,10,01,16,51,17.60
2017,10,01,16,52,17.60
2017,10,01,16,53,17.60
2017,10,01,16,54,17.60
2017,10,01,16,55,17.60
2017,10,01,16,56,17.60
2017,10,01,16,57,17.60
2017,10,01,16,58,17.60
2017,10,01,16,59,17.60
2017,10,01,17,00,17.60
2017,10,01,17,01,17.60
2017,10,01,17,02,17.60
2017,10,01,17,03,17.60
2017,10,01,17,04,17.60
2017,10,01,17,05,17.60
2017,10,01,17,06,17.60
2017,10,01,17,07,17.60
2017,10,01,17,08,17.60
2017,10,01,17,09,17.70
2017,10,01,17,10,17.70
2017,10,01,17,11,17.70
2017,10,01,17,12,17.70
2017,10,01,17,13,17.70
2017,10,01,17,14,17.70
2017,10,01,17,15,17.70
2017,10,01,17,16,17.70
2017,10,01,17,17,17.70
2017,10,01,17,18,17.70
2017,10,01,17,19,17.60
2017,10,01,17,20,17.60
2017,10,01,17,21,17.60
2017,10,01,17,22,17.60
2017,10,01,17,23,17.60
2017,10,01,17,24,17.60
2017,10,01,17,25,17.60
2017,10,01,17,26,17.60
2017,10,01,17,27,17.60
2017,10,01,17,28,17.60
2017,10,01,17,29,17.50
2017,10,01,17,30,17.50
2017,10,01,17,31,17.50
2017,10,01,17,32,17.50
2017,10,01,17,33,17.50
2017,10,01,17,34,17.50
2017,10,01,17,35,17.40
2017,10,01,17,36,17.40
2017,10,01,17,37,17.40